{"data":{"norad_id":67944,"intl_designator":"2026-037N","name":"STARLINK-36892","alt_names":[],"object_type":"PAYLOAD","status":"ACTIVE","operator":null,"country":"US","launch_date":"2026-02-24","launch_site_code":"AFETR","launch_vehicle":null,"mission":null,"orbit_class":"UNKNOWN","rcs_meters":null,"size_class":null,"mass_kg":null,"dimensions":null,"purposes":["comms"],"wikipedia_slug":null,"has_3d_model":false,"image_url":null,"decayed_at":null,"tle_current":{"epoch":"2026-09-19T04:13:10.682976Z","epoch_age_seconds":177658,"freshness":"STALE","line1":"1 67944U 26037N   26262.17581809  .00013548  00000+0  50082-3 0  9993","line2":"2 67944  43.0002 177.8609 0001511 271.4181  88.6498 15.27587919 32935","mean_motion":15.27587919,"eccentricity":0.0001511,"inclination_deg":43.0002,"raan_deg":177.8609,"arg_perigee_deg":271.4181,"mean_anomaly_deg":88.6498,"bstar":0.00050082,"rev_number":3293,"period_min":94.2662600358,"perigee_km":481.98866217105,"apogee_km":484.06210544344,"semimajor_km":6861.1623838072,"source":"CELESTRAK","updated_at":"2026-09-20T09:00:43.709230Z"}}}